[[{"header":{"parameterUnit":"m.s-1","parameterCategory":1,"la1":30.2991,"la2":30.254,"lo1":-89.0895,"lo2":-89.0444,"dy":0.0017,"dx":0.0017,"nx":28,"ny":28,"refTime":"2024-04-09T21:00:00:Z","depth":0,"parameterNumber":2,"parameterNumberName":"U-component_of_WINDS"},"data":[0,0,0,0,0,0,0,0,0,0,0,0,0,0,0,0,0,0,0,0,0,0,0,0,0,0,0,0,0,0,0,0,0,0,0,0,0,0,0,0,0,0,0,0,0,0,0,0,0,0,0,0,0,0,0,0,0,0,6.0236,6.0238,0,6.0394,6.0396,6.0397,6.0342,6.0339,6.0335,6.0332,6.0497,6.0504,6.0512,0,0,0,0,0,0,0,0,0,0,0,0,0,5.9888,5.9895,6.0236,6.0238,6.024,6.0394,6.0396,6.0398,6.0343,6.0339,6.0334,6.033,6.0494,6.0503,6.0513,0,0,0,0,0,0,0,0,0,0,0,0,0,6.0042,5.9897,6.0235,6.0231,6.0232,6.0393,6.0396,6.0399,6.0344,6.0339,6.0333,6.0328,6.0491,6.0503,6.0514,6.069,0,0,6.0549,6.0554,0,0,0,0,0,0,0,0,6.0033,6.0055,6.023,6.0231,6.0233,6.0343,6.0334,6.0496,6.0345,6.0302,6.0332,6.0326,6.045,6.0465,6.0506,6.0698,6.0705,6.055,6.0557,6.0562,6.0565,0,0,0,0,0,0,0,6.0023,6.0048,6.0298,6.0232,6.0234,6.0221,6.0237,6.0364,6.0404,6.0305,6.0301,6.0321,6.045,6.0495,6.0509,6.0707,6.055,6.056,6.0567,6.0571,6.105,6.1055,0,0,0,0,0,0,6.0011,6.0039,6.0293,6.0303,6.0118,6.0232,6.025,6.0313,6.0402,6.041,6.0325,6.0317,6.0478,6.0496,6.0515,6.0725,6.0562,6.0573,6.0579,6.1044,6.1051,6.1057,0,0,0,0,0,0,6.0004,6.0034,6.0287,6.017,6.0201,6.0243,6.0315,6.0319,6.0364,6.0417,6.0424,6.0363,6.0475,6.0499,6.0646,6.073,6.0578,6.0588,6.1037,6.1046,6.1054,6.1149,0,0,0,0,0,0,5.9994,6.0032,6.0099,6.0172,6.0208,6.0415,6.032,6.0326,6.0383,6.0375,6.0455,6.0463,6.0472,6.0629,6.0658,6.0743,6.0597,6.103,6.1041,6.1051,6.1138,6.116,6.1178,0,0,0,0,0,5.9982,6.012,6.0103,6.0134,6.0292,6.042,6.0441,6.0447,6.039,6.0458,6.0492,6.0461,6.0717,6.0645,6.0676,6.0767,6.1025,6.1038,6.1051,6.1129,6.1155,6.1177,0,0,0,0,0,0,6.0057,6.013,6.0111,6.0277,6.0343,6.0411,6.0496,6.0475,6.0559,6.0548,6.0554,6.0572,6.0723,6.076,6.0679,6.0941,6.0862,6.0882,6.0911,6.0937,6.0956,6.0943,6.0607,0,0,0,0,0,6.0093,6.019,6.0249,6.039,6.0423,6.0454,6.051,6.051,6.0578,6.0606,6.0651,6.072,6.0815,6.0878,6.0969,6.1144,6.116,6.1222,6.1241,6.1257,6.1274,6.1367,6.1395,6.11,6.11,6.11,0,0,6.0168,6.022,6.0281,6.0406,6.0457,6.0557,6.0478,6.0588,6.0663,6.0623,6.0764,6.08,6.0877,6.1038,6.1111,6.1073,6.1359,6.1274,6.1286,6.1295,6.1384,6.1411,6.1436,6.1109,6.1108,6.1106,0,0,6.0356,6.0405,6.0527,6.0579,6.0657,6.0676,6.0706,6.0777,6.0798,6.094,6.0911,6.1001,6.1166,6.1221,6.1271,6.1479,6.1453,6.1509,6.1612,6.1703,6.1726,6.1746,6.1819,6.1845,6.1526,6.1526,6.1526,0,6.0439,6.0589,6.0593,6.0705,6.076,6.0728,6.0851,6.0902,6.1006,6.1045,6.1001,6.1206,6.1256,6.1428,6.1479,6.1521,6.1554,6.1499,6.1722,6.1743,6.1762,6.1831,6.1859,6.1532,6.1532,6.1531,6.153,0,6.0687,6.0792,6.0881,6.098,6.1046,6.1163,6.1185,6.1251,6.1245,6.1269,6.1413,6.1472,6.1573,6.1614,6.161,6.1787,6.176,6.172,6.164,6.1796,6.1861,6.1888,6.1541,6.1539,6.1537,6.1535,0,0,6.0927,6.1025,6.1058,6.1102,6.1185,6.1265,6.1381,6.1479,6.1535,6.1608,6.1705,6.1845,6.1807,6.1863,6.1865,6.1945,6.2104,6.1894,6.1896,6.193,6.23,6.2329,6.236,6.2088,6.2093,6.2097,6.2293,0,6.1119,6.1321,6.1328,6.1512,6.1608,6.1578,6.1679,6.1741,6.1767,6.1852,6.1881,6.1979,6.1923,6.1956,6.2034,6.2068,6.2178,6.2054,6.2177,6.2181,6.2157,6.2394,6.2425,6.2607,6.2319,6.2323,6.2326,0,6.1371,6.145,6.1644,6.1711,6.1751,6.1842,6.1931,6.2013,6.2083,6.2096,6.2159,6.2148,6.2267,6.2184,6.2347,6.2262,6.2313,6.2338,6.2345,6.2355,6.2262,6.2409,6.2666,6.2692,6.2367,6.2363,6.236,0,6.1524,6.1679,6.1814,6.1853,6.1936,6.1999,6.2037,6.2101,6.2159,6.2238,6.2275,6.2368,6.2418,6.249,6.2505,6.2444,6.2668,6.2587,6.2681,6.2681,6.2728,6.2725,6.2995,6.2765,6.2764,6.2764,6.2763,0,6.1738,6.1857,6.1883,6.1967,6.2099,6.2106,6.2237,6.227,6.2327,6.2416,6.2397,6.2481,6.2497,6.2584,6.2597,6.2729,6.2753,6.2766,6.2768,6.2767,6.2765,6.2799,6.2786,6.2771,6.2769,6.2768,6.2767,0,6.193,6.1953,6.2098,6.2164,6.2183,6.2277,6.2334,6.2414,6.2437,6.255,6.2577,6.2614,6.2716,6.2738,6.2861,6.2869,6.3025,6.3015,6.3001,6.2999,6.3092,6.3082,6.3392,6.3432,6.3177,6.3179,6.3181,0,6.2064,6.2154,6.2229,6.2287,6.2327,6.2421,6.2479,6.249,6.2552,6.2637,6.2706,6.2806,6.2886,6.305,6.3089,6.3181,6.3173,6.3275,6.3187,6.3182,6.3172,6.3165,6.3174,6.3291,6.3294,6.3296,6.3298,0,6.2298,6.2305,6.2389,6.2478,6.2548,6.2619,6.2686,6.2735,6.2754,6.2825,6.2928,6.299,6.3114,6.3212,6.3305,6.3344,6.3325,6.3326,6.3352,6.3351,6.3338,6.3344,6.3045,6.3318,6.3316,6.3315,6.3314,6.3313,6.2464,6.2543,6.2607,6.2702,6.2753,6.2816,6.2894,6.2926,6.3012,6.3112,6.3114,6.3226,6.3292,6.3415,6.3459,6.3548,6.3516,6.3555,6.3564,6.3573,6.358,6.3326,6.3565,6.3565,6.3564,6.3564,6.3563,0,6.2696,6.2736,6.2823,6.2917,6.2991,6.2965,6.3038,6.3102,6.3201,6.3264,6.3343,6.3461,6.3557,6.3602,6.3697,6.3759,6.3752,6.3783,6.3777,6.3787,6.3605,6.3571,6.3787,6.3787,6.3787,6.3786,6.3786,6.3786,6.2825,6.2956,6.297,6.3126,6.3165,6.3274,6.3317,6.3375,6.3425,6.3558,6.3636,6.3665,6.3721,6.3819,6.3906,6.3917,6.3952,6.3987,6.3994,6.3822,6.38,6.3778,6.3746,6.3995,6.3995,6.4168,6.4169,6.4171]},{"header":{"parameterUnit":"m.s-1","parameterCategory":1,"la1":30.2991,"la2":30.254,"lo1":-89.0895,"lo2":-89.0444,"dy":0.0017,"dx":0.0017,"nx":28,"ny":28,"refTime":"2024-04-09T21:00:00:Z","depth":0,"parameterNumber":3,"parameterNumberName":"V-component_of_WINDS"},"data":[0,0,0,0,0,0,0,0,0,0,0,0,0,0,0,0,0,0,0,0,0,0,0,0,0,0,0,0,0,0,0,0,0,0,0,0,0,0,0,0,0,0,0,0,0,0,0,0,0,0,0,0,0,0,0,0,0,0,3.1658,3.1659,0,3.1747,3.1748,3.1749,3.1735,3.1733,3.1731,3.173,3.1817,3.1821,3.1825,0,0,0,0,0,0,0,0,0,0,0,0,0,3.147,3.1474,3.1658,3.1659,3.166,3.1747,3.1748,3.1749,3.1735,3.1733,3.1731,3.1729,3.1816,3.1821,3.1825,0,0,0,0,0,0,0,0,0,0,0,0,0,3.1555,3.1475,3.1658,3.1663,3.1665,3.1747,3.1748,3.175,3.1735,3.1733,3.1731,3.1728,3.1815,3.182,3.1826,3.1906,0,0,3.1843,3.1845,0,0,0,0,0,0,0,0,3.155,3.1561,3.1661,3.1663,3.1665,3.1727,3.1714,3.1802,3.1736,3.1708,3.173,3.1727,3.1789,3.1797,3.1818,3.1911,3.1914,3.1843,3.1847,3.1849,3.1851,0,0,0,0,0,0,0,3.1544,3.1558,3.1693,3.1663,3.1665,3.166,3.1669,3.1731,3.176,3.171,3.171,3.1721,3.1789,3.1813,3.182,3.1916,3.1843,3.1848,3.1852,3.1854,3.2077,3.208,0,0,0,0,0,0,3.1537,3.1553,3.169,3.1696,3.1601,3.1665,3.1676,3.171,3.176,3.1765,3.1723,3.172,3.1804,3.1814,3.1823,3.1921,3.1849,3.1854,3.1858,3.2075,3.2078,3.2081,0,0,0,0,0,0,3.1533,3.1549,3.1687,3.1624,3.1641,3.1671,3.1709,3.1713,3.1736,3.1769,3.1774,3.1741,3.1803,3.1815,3.1886,3.1923,3.1857,3.1862,3.2072,3.2076,3.2079,3.2116,0,0,0,0,0,0,3.1528,3.1548,3.158,3.1625,3.1645,3.1749,3.1711,3.1716,3.1746,3.1743,3.1788,3.1793,3.1802,3.1878,3.1892,3.193,3.1866,3.2069,3.2074,3.2078,3.2112,3.2121,3.2129,0,0,0,0,0,3.1521,3.1586,3.1582,3.1599,3.1686,3.1752,3.1763,3.1773,3.1749,3.1781,3.1802,3.1791,3.1917,3.1885,3.1901,3.1941,3.2066,3.2072,3.2078,3.2108,3.2119,3.2129,0,0,0,0,0,0,3.1544,3.1592,3.1588,3.167,3.1707,3.1749,3.1789,3.1785,3.1828,3.1823,3.1833,3.1843,3.1915,3.1935,3.1898,3.2021,3.1988,3.1997,3.2006,3.2017,3.2025,3.2018,3.1871,0,0,0,0,0,3.1559,3.161,3.1649,3.1717,3.1736,3.176,3.1789,3.1794,3.1832,3.1847,3.1873,3.1909,3.1957,3.1988,3.2033,3.2115,3.2123,3.215,3.2159,3.2165,3.2173,3.2216,3.2229,3.21,3.21,3.2099,0,0,3.159,3.1622,3.1654,3.1723,3.1752,3.1803,3.1773,3.1828,3.1866,3.1855,3.1924,3.1944,3.1985,3.2061,3.2096,3.208,3.221,3.2173,3.2178,3.2182,3.2224,3.2236,3.2247,3.2104,3.2103,3.2102,0,0,3.1672,3.1702,3.1762,3.1792,3.1837,3.1852,3.1867,3.191,3.1923,3.1993,3.1985,3.2029,3.2111,3.214,3.2166,3.2259,3.225,3.2273,3.2317,3.2359,3.2369,3.2378,3.2411,3.2422,3.2281,3.2281,3.2281,0,3.1704,3.1782,3.1793,3.185,3.188,3.1874,3.1934,3.1962,3.2019,3.2039,3.2021,3.2123,3.215,3.2233,3.2255,3.2277,3.2292,3.2268,3.2367,3.2376,3.2385,3.2416,3.2428,3.2283,3.2283,3.2283,3.2282,0,3.1819,3.1873,3.1916,3.1973,3.2007,3.2065,3.2084,3.2118,3.2119,3.2136,3.2206,3.2238,3.229,3.231,3.2312,3.2392,3.2381,3.2365,3.2332,3.24,3.2429,3.2441,3.2287,3.2286,3.2285,3.2284,0,0,3.1918,3.198,3.1996,3.2021,3.207,3.2111,3.2168,3.222,3.2249,3.2288,3.2335,3.2404,3.239,3.2419,3.2424,3.2461,3.2531,3.244,3.2441,3.2455,3.2621,3.2633,3.2646,3.2526,3.2528,3.253,3.2617,0,3.2004,3.2107,3.2118,3.2209,3.2258,3.2253,3.2302,3.2337,3.2354,3.2397,3.2415,3.2464,3.2441,3.2458,3.2495,3.2515,3.2564,3.2509,3.2568,3.257,3.2558,3.2662,3.2674,3.2755,3.2629,3.2631,3.2632,0,3.2119,3.2163,3.2259,3.23,3.2322,3.2366,3.2414,3.2456,3.2494,3.2504,3.2536,3.2536,3.2593,3.2558,3.2636,3.2598,3.2623,3.2636,3.264,3.2645,3.2605,3.2669,3.2781,3.2793,3.265,3.2649,3.2648,0,3.2181,3.2264,3.2332,3.2354,3.2404,3.2435,3.2457,3.2494,3.2524,3.2566,3.2585,3.2632,3.2658,3.2693,3.2705,3.2679,3.2783,3.2748,3.2791,3.2791,3.2813,3.2811,3.293,3.283,3.2829,3.2829,3.2829,0,3.2276,3.2334,3.236,3.2402,3.2467,3.2479,3.2543,3.2563,3.2595,3.264,3.2637,3.2679,3.2693,3.2736,3.2745,3.2808,3.2819,3.2828,3.2829,3.2828,3.2827,3.2844,3.2838,3.2832,3.2832,3.2831,3.2831,0,3.2356,3.2376,3.2449,3.2491,3.2503,3.2549,3.2584,3.2624,3.264,3.2696,3.271,3.2735,3.2786,3.2802,3.2862,3.2869,3.2942,3.2939,3.2929,3.2929,3.2971,3.2966,3.3104,3.3122,3.3011,3.3012,3.3013,0,3.2415,3.246,3.2507,3.2537,3.2561,3.261,3.2641,3.2654,3.2686,3.2734,3.2767,3.2818,3.2859,3.294,3.2962,3.3009,3.3006,3.3051,3.3013,3.301,3.3006,3.3003,3.3007,3.3058,3.3059,3.306,3.3061,0,3.2517,3.2525,3.2571,3.262,3.2657,3.2696,3.2734,3.2758,3.2777,3.2813,3.2866,3.2898,3.296,3.301,3.3057,3.3078,3.3072,3.3073,3.3085,3.3084,3.3076,3.308,3.2948,3.307,3.3069,3.3068,3.3068,3.3067,3.2588,3.2628,3.2667,3.2718,3.2748,3.2783,3.2822,3.2844,3.2888,3.2941,3.2946,3.3003,3.3039,3.3101,3.3125,3.3168,3.3155,3.3173,3.3177,3.3181,3.3184,3.307,3.3177,3.3176,3.3176,3.3176,3.3176,0,3.269,3.2715,3.2762,3.2815,3.2854,3.2847,3.2888,3.2921,3.2972,3.3007,3.3048,3.3108,3.3156,3.3182,3.323,3.3259,3.3258,3.3271,3.3269,3.3274,3.3194,3.3178,3.3272,3.3272,3.3272,3.3272,3.3272,3.3272,3.2747,3.2814,3.2826,3.2907,3.2931,3.2988,3.3012,3.3044,3.3072,3.3139,3.318,3.3197,3.3228,3.3278,3.3322,3.3328,3.3345,3.336,3.3365,3.3289,3.3279,3.327,3.3255,3.3364,3.3364,3.3441,3.3442,3.3442]}]]